George Bush Intercontinental Houston Airport Houston US
ICAO: KIAH
IATA: IAH
Category: Large
Scheduled Services: Yes

Elevation: 97 ft
TransAlt. 18000 ft.

Airport Communications:
APP:120.05
ATIS:124.05
CLNC DEL:128.1
DEP:28.14
DEP:119.7
GND:118.575
MONTGOMERY CO RDO:122.4
TWR:29.02
TWR:120.725
UNICOM:122.95

KIAH Zoom In..

Runways:

(A) RW 08L length 9000 ft width 150 ft
ILS 111.55 / hdg 85

(B) RW 08R length 9402 ft width 150 ft
ILS 109.70 / hdg 85

(C) RW 09 length 10000 ft width 150 ft
ILS 110.90 / hdg 85

(D) RW 15L length 12001 ft width 150 ft
---- / hdg 147

(E) RW 15R length 10000 ft width 150 ft
ILS 111.15 / hdg 147

(F) RW 26L length 9402 ft width 150 ft
ILS 109.70 / hdg 265

(G) RW 26R length 9000 ft width 150 ft
ILS 111.55 / hdg 265

(H) RW 27 length 10000 ft width 150 ft
ILS 110.90 / hdg 265

(I) RW 33L length 10000 ft width 150 ft
---- / hdg 327

(J) RW 33R length 12001 ft width 150 ft
ILS 111.90 / hdg 327

Location; KIAH
Day. 23 / Time. 09.53 Zulu
* Altimeter: 29.87
* Temperature: 27° c. 80.6°f.
* Wind from: 240° Speed 07 kn.
Dewpoint: 26° c.
Visibility: 10 Statute Miles.
Clouds: Few 1000 ft.
Clouds: Broken 2000 ft.

KIAH 230953Z 24007KT 10SM FEW010 BKN200 27/26 A2987 RMK AO2 SLP112 T02720256


Wind From 240°
Speed 07 kn.

 
 
jpsmedia.com for Web Design worldairports.se 2018   terms of use